Gerald R Ford International Airport (GRR)


Airport Diagram
Current Weather/Forecast (VFR Conditions)
METAR KGRR 120253Z 32003KT 10SM SCT250 21/12 A3004 RMK AO2 SLP168 T02060117 51012
TAF KGRR 112337Z 1200/1224 29008KT P6SM SCT250 FM120200 VRB03KT P6SM SCT250

All Charts
General
Chart Name Download
AIRPORT DIAGRAM
TAKEOFF MINIMUMS
ALTERNATE MINIMUMS
RADAR MINIMUMS
HOT SPOT

Approaches
Chart Name Download
ILS OR LOC RWY 08R
ILS OR LOC RWY 26L
ILS OR LOC RWY 35
ILS RWY 35 (SA CAT I - II)
RNAV (GPS) RWY 08L
RNAV (GPS) RWY 08R
RNAV (GPS) RWY 17
RNAV (GPS) RWY 26L
RNAV (GPS) RWY 26R
RNAV (GPS) RWY 35
VOR RWY 17